Weather History for KFOK - November, 2013

Change the Weather History Date:

Friday, November 15, 2013

  Actual Average Record
Temperature  
Mean Temperature 41 °F -  
Max Temperature 54 °F 50 °F 66 °F (2011)
Min Temperature 28 °F 31 °F 19 °F (2014)
Degree Days  
Heating Degree Days 24    
Moisture  
Dew Point 30 °F    
Average Humidity 75    
Maximum Humidity 93    
Minimum Humidity 51    
Precipitation  
Precipitation 0.00 in - - ()
Sea Level Pressure  
Sea Level Pressure 30.24 in    
Wind  
Wind Speed 5 mph (SW)    
Max Wind Speed 12 mph    
Max Gust Speed 17 mph    
Visibility 7 miles    
Events Fog    
Averages and records for this station are not official NWS values.
T = Trace of Precipitation, MM = Missing Value Source: NWS Daily Summary

Daily Weather History Graph

Daily Weather History Graph

Search for Another Location

Airport or City:

Trip Planner

Search our weather history database for the weather conditions in past years. The results will help you decide how hot, cold, wet, or windy it might be!

Date:

Astronomy

Nov. 15, 2013 Rise Set
Actual Time 6:37 AM EST 4:31 PM EST
Civil Twilight 6:08 AM EST 5:01 PM EST
Nautical Twilight 5:35 AM EST 5:34 PM EST
Astronomical Twilight 5:02 AM EST 6:07 PM EST
Moon 3:27 PM EST (11/15) 4:30 AM EST (11/15)
Length of Visible Light 10h 52m
Length of Day
9h 54m
Waxing Gibbous, 96% of the Moon is Illuminated
Nov 15
Waxing Gibbous
Nov 17
Full
Nov 25
Last Quarter
Dec 2
New
Dec 9
First Quarter

Hourly Weather History & Observations

Time (EST) Temp. Windchill Dew Point Humidity Pressure Visibility Wind Dir Wind Speed Gust Speed Precip Events Conditions
12:53 AM 44.1 °F 40.8 °F 28.0 °F 53% 30.21 in 10.0 mi WSW 5.8 mph - N/A   Clear
1:53 AM 45.0 °F 41.2 °F 28.9 °F 53% 30.22 in 10.0 mi SW 6.9 mph - N/A   Clear
2:53 AM 44.1 °F 38.6 °F 28.0 °F 53% 30.22 in 10.0 mi WSW 10.4 mph - N/A   Clear
3:53 AM 43.0 °F 38.2 °F 26.1 °F 51% 30.23 in 10.0 mi WSW 8.1 mph - N/A   Clear
4:53 AM 39.9 °F 35.1 °F 26.1 °F 58% 30.23 in 10.0 mi WSW 6.9 mph - N/A   Clear
5:53 AM 33.1 °F - 24.1 °F 70% 30.24 in 10.0 mi Calm Calm - N/A   Clear
6:53 AM 28.0 °F - 21.0 °F 75% 30.26 in 10.0 mi Calm Calm - N/A   Clear
7:53 AM 33.1 °F - 25.0 °F 72% 30.26 in 10.0 mi Calm Calm - N/A   Clear
8:53 AM 51.1 °F - 37.9 °F 61% 30.27 in 10.0 mi SW 8.1 mph - N/A   Clear
9:53 AM 53.1 °F - 37.9 °F 57% 30.27 in 10.0 mi SW 9.2 mph - N/A   Clear
10:53 AM 54.0 °F - 39.9 °F 59% 30.26 in 10.0 mi SW 11.5 mph 17.3 mph N/A   Clear
11:53 AM 53.1 °F - 39.9 °F 61% 30.24 in 10.0 mi SW 10.4 mph - N/A   Clear
12:53 PM 53.1 °F - 39.9 °F 61% 30.22 in 10.0 mi SW 11.5 mph 16.1 mph N/A   Clear
1:53 PM 54.0 °F - 39.9 °F 59% 30.21 in 10.0 mi SSW 10.4 mph 16.1 mph N/A   Clear
2:53 PM 53.1 °F - 39.0 °F 59% 30.21 in 10.0 mi SSW 8.1 mph - N/A   Clear
3:53 PM 51.1 °F - 39.0 °F 63% 30.20 in 10.0 mi SW 8.1 mph - N/A   Clear
4:53 PM 50.0 °F - 39.9 °F 68% 30.21 in 10.0 mi SSW 8.1 mph - N/A   Clear
5:53 PM 48.0 °F - 39.9 °F 74% 30.22 in 10.0 mi SW 4.6 mph - N/A   Clear
6:53 PM 46.9 °F - 39.9 °F 77% 30.21 in 10.0 mi SSW 4.6 mph - N/A   Clear
7:53 PM 34.0 °F - 30.0 °F 85% 30.21 in 9.0 mi Calm Calm - N/A   Clear
8:53 PM 28.9 °F - 26.1 °F 89% 30.23 in 8.0 mi Calm Calm - N/A   Clear
9:53 PM 30.0 °F - 27.0 °F 88% 30.23 in 9.0 mi Calm Calm - N/A   Clear
10:04 PM 28.4 °F - 24.8 °F 86% 30.22 in 7.0 mi Calm Calm - N/A   Scattered Clouds
10:13 PM 28.4 °F - 26.6 °F 93% 30.23 in 7.0 mi Calm Calm - N/A   Mostly Cloudy
10:33 PM 28.4 °F - 26.6 °F 93% 30.23 in 0.8 mi Calm Calm - N/A   Mist
10:42 PM 28.4 °F - 26.6 °F 93% 30.24 in 0.2 mi Calm Calm - N/A Fog Light Freezing Fog
10:53 PM 28.0 °F - 26.1 °F 92% 30.25 in 0.2 mi Calm Calm - N/A Fog Light Freezing Fog
11:02 PM 28.4 °F 24.6 °F 26.6 °F 93% 30.26 in 1.0 mi WSW 3.5 mph - N/A   Mist
11:05 PM 28.4 °F - 26.6 °F 93% 30.26 in 2.0 mi Calm Calm - N/A   Partly Cloudy
11:23 PM 28.4 °F - 26.6 °F 93% 30.26 in 6.0 mi Calm Calm - N/A   Partly Cloudy
11:26 PM 28.4 °F - 26.6 °F 93% 30.26 in 1.2 mi Calm Calm - N/A   Partly Cloudy
11:28 PM 28.4 °F - 26.6 °F 93% 30.26 in 0.8 mi Calm Calm - N/A   Mist
11:36 PM 28.4 °F - 26.6 °F 93% 30.26 in 1.5 mi Calm Calm - N/A   Partly Cloudy
11:38 PM 28.4 °F - 26.6 °F 93% 30.26 in 4.0 mi Calm Calm - N/A   Partly Cloudy
11:53 PM 28.0 °F 24.2 °F 25.0 °F 88% 30.27 in 6.0 mi West 3.5 mph - N/A   Partly Cloudy